Hourly Data Report for November 11, 2019

All times are specified in Local Standard Time (LST). Add 1 hour to adjust for Daylight Saving Time where and when it is observed.

HOPE A
BRITISH COLUMBIA
Current Station Operator: NAVCAN

49°22'06.000" N
121°29'53.000" W
39.00 m
1113542
71187
YHE

Download Data

Hourly Data (November 2019)
Hourly Data Report for November 11, 2019
TIME Temp Definition
°C
Dew Point Definition
°C
Rel Hum Definition
%
Wind Dir Definition
10's deg

Wind Spd Definition
km/h
Visibility Definition
km
Stn Press Definition
kPa
Hmdx Definition


Wind Chill Definition


Weather Definition


00:00 6.6 0.6 65 12 24 16.1 102.72     LegendNANA
01:00 6.2 0.1 65 11 24 16.1 102.70     LegendNANA
02:00 6.3 -0.3 63 10 24 16.1 102.70     LegendNANA
03:00 5.7 -0.2 66 10 22 16.1 102.68     LegendNANA
04:00 5.3 0.1 69 11 21 16.1 102.65     LegendNANA
05:00 5.6 -0.3 66 10 18 16.1 102.65     LegendNANA
06:00 5.2 -0.4 67 11 21 16.1 102.62     LegendNANA
07:00 4.3 0.3 75 10 22 16.1 102.58     LegendNANA
08:00 4.7 -0.3 70 12 24 16.1 102.58     LegendNANA
09:00 5.1 -0.1 69 11 22 16.1 102.51     LegendNANA
10:00 5.9 -0.1 65 11 26 16.1 102.47     LegendNANA
11:00 7.2 0.4 62 11 22 16.1 102.39     LegendNANA
12:00 8.5 -0.3 54 10 21 16.1 102.28     LegendNANA
13:00 8.8 0.0 54 10 21 16.1 102.14     LegendNANA
14:00 8.9 -0.2 53 11 22 16.1 102.05     LegendNANA
15:00 8.9 0.7 56 11 15 16.1 102.03     LegendNANA
16:00 8.3 0.7 59 10 15 16.1 102.03     LegendNANA
17:00 7.6 1.0 63 11 17 16.1 101.92     LegendNANA
18:00 7.2 1.5 67 9 11 16.1 101.90     LegendNANA
19:00 6.8 1.5 69 9 13 16.1 101.83     LegendNANA
20:00 6.9 1.6 69 10 18 16.1 101.70     LegendNANA
21:00 6.9 1.3 67 10 18 16.1 101.71     LegendNANA
22:00 7.0 1.8 70 9 13 16.1 101.72     LegendNANA
23:00 7.0 1.9 70 10 15 16.1 101.69     LegendNANA

Notes on Data Quality.

Legend

  • E = Estimated
  • M = Missing
  • NA = Not Available
Date modified: